Regional Weather Roundup
Issued by NWS

Home | Current Version | Previous Version | Text Only | Print | Product List | Glossary Off
Versions: 1 2 3 4 5 6 7 8 9 10 11 12 13 14 15 16 17 18 19 20 21 22 23 24 25 26 27 28 29 30 31 32 33 34 35 36 37 38 39 40 41 42 43 44 45 46 47 48 49 50

475
ASUS43 KLMK 250410
RWRKY
KENTUCKY REGIONAL WEATHER ROUNDUP
NATIONAL WEATHER SERVICE LOUISVILLE KY
1200 AM EDT SAT MAR 25 2017

NOTE "FAIR" INDICATES FEW OR NO CLOUDS BELOW 12,000 FEET
WITH NO SIGNIFICANT WEATHER AND/OR OBSTRUCTIONS TO VISIBILITY.

KYZ001>023-026-027-061>063-070>075-250500-
WESTERN AND SOUTH CENTRAL KENTUCKY

CITY           SKY/WX    TMP DP  RH WIND       PRES   REMARKS
PADUCAH        CLOUDY    67  54  63 SE10      30.01F
HENDERSON      CLOUDY    64  50  59 SE6       30.06F
OWENSBORO      MOCLDY    64  53  67 SE8       30.10F
HOPKINSVILLE   MOCLDY    68  54  60 SE6       30.09F
BOWLING GREEN  CLOUDY    68  52  56 S10       30.13S
GLASGOW        CLOUDY    65  50  58 S9        30.14F
$$

KYZ024-025-028>034-038-045-046-053-250500-
NORTH CENTRAL KENTUCKY

CITY           SKY/WX    TMP DP  RH WIND       PRES   REMARKS
LOUISVILLE/SDF PTCLDY    69  50  50 S9        30.13S
LOUISVILLE/LOU MOCLDY    68  52  56 S6        30.14R
FORT KNOX      PTCLDY    62  52  68 SE6       30.12S
$$

KYZ035>037-039>044-047>052-055>060-089>105-250500-
NORTHEAST KENTUCKY

CITY           SKY/WX    TMP DP  RH WIND       PRES   REMARKS
LEXINGTON      CLOUDY    63  49  60 S10       30.17R
COVINGTON      CLOUDY    65  52  62 SW8       30.14S
FRANKFORT      CLOUDY    65  49  56 S7        30.15R
$$

KYZ054-064>069-076>088-106>120-250500-
SOUTHEAST KENTUCKY

CITY           SKY/WX    TMP DP  RH WIND       PRES   REMARKS
JACKSON        CLOUDY    64  48  56 VRB6      30.21F
LONDON         MOCLDY    62  46  55 S7        30.21F
SOMERSET       CLOUDY    61  46  59 S7        30.21F
MIDDLESBORO    MOCLDY    63  47  57 S3        30.25F
MONTICELLO     CLOUDY    64  49  57 E7        30.20F
$$





USA.gov is the U.S. government's official web portal to all federal, state and local government web resources and services.